Location: Bathurst
(33.4193°S, 149.5775°E)
Time: 10:16:59
(UTC+10:00)

Vanguard 1 Rocket - Pass Details

Date: 22 June 2021
Orbit: 650 x 4226 km, 34.3° (Epoch: 02 August)

Event Time Altitude Azimuth Distance (km) Brightness Sun altitude
Rises 11:21:50 0° 268° (W) 7,468 11.9 32.3°
Reaches altitude 10° 11:27:38 10° 266° (W) 5,928 11.5 32.5°
Maximum altitude 11:43:41 87° 176° (S) 1,772 9.4 32.9°
Drops below altitude 10° 11:51:28 10° 85° (E) 3,083 10.3 33.1°
Sets 11:53:34 0° 85° (E) 3,789 10.7 33.1°
